K5GJ Weather Reports


Display with metric or nautical units.
time (UTC)temp
F
wind
direction
speed
MPH
gust
MPH
rain 1hr
in
rain 24hr
in
rain mn
in
humidity
%
barometer
mb
20190218191207 65 66 2.0 5.0 0.00 0.00 0.00 33 1022.6
20190218190707 65 338 2.0 6.0 0.00 0.00 0.00 33 1022.7
20190218190207 64 31 3.0 7.0 0.00 0.00 0.00 34 1022.7
20190218185706 63 330 3.0 11.0 0.00 0.00 0.00 31 1022.9
20190218185207 62 0 5.0 11.0 0.00 0.00 0.00 32 1022.9
20190218184707 62 0 4.0 7.0 0.00 0.00 0.00 36 1022.9
20190218184206 64 0 3.0 6.0 0.00 0.00 0.00 34 1023.0
20190218183708 63 49 2.0 11.0 0.00 0.00 0.00 36 1023.2
20190218183206 62 10 4.0 10.0 0.00 0.00 0.00 35 1023.2
20190218182706 62 23 4.0 11.0 0.00 0.00 0.00 36 1023.4
20190218182206 62 0 6.0 11.0 0.00 0.00 0.00 36 1023.4
20190218181706 63 65 2.0 9.0 0.00 0.00 0.00 37 1023.4
20190218181205 62 17 3.0 9.0 0.00 0.00 0.00 37 1023.4
20190218180706 62 23 2.0 7.0 0.00 0.00 0.00 39 1023.5
20190218180206 61 11 2.0 7.0 0.00 0.00 0.00 38 1023.6
20190218175705 61 345 3.0 6.0 0.00 0.00 0.00 37 1023.6
20190218175207 61 6 3.0 11.0 0.00 0.00 0.00 39 1023.8
20190218174705 61 300 2.0 11.0 0.00 0.00 0.00 41 1023.8
20190218174205 60 353 3.0 9.0 0.00 0.00 0.00 40 1023.8
20190218173706 59 20 3.0 13.0 0.00 0.00 0.00 41 1024.0
20190218173205 59 17 3.0 14.0 0.00 0.00 0.00 42 1024.0
20190218172705 58 0 6.0 12.0 0.00 0.00 0.00 41 1024.0
20190218172205 58 358 4.0 9.0 0.00 0.00 0.00 43 1024.0
20190218171704 57 299 2.0 9.0 0.00 0.00 0.00 44 1024.0
20190218171204 57 54 3.0 9.0 0.00 0.00 0.00 43 1024.2
20190218170704 57 25 4.0 9.0 0.00 0.00 0.00 44 1024.1
20190218170205 57 28 2.0 7.0 0.00 0.00 0.00 45 1024.4
20190218165704 57 306 2.0 9.0 0.00 0.00 0.00 45 1024.5
20190218165205 56 0 3.0 9.0 0.00 0.00 0.00 46 1024.5
20190218164704 56 0 3.0 11.0 0.00 0.00 0.00 45 1024.4
20190218164204 55 24 2.0 10.0 0.00 0.00 0.00 48 1024.7
20190218163704 55 116 3.0 7.0 0.00 0.00 0.00 46 1024.7
20190218163204 55 52 3.0 9.0 0.00 0.00 0.00 47 1024.7
20190218162705 56 351 3.0 10.0 0.00 0.00 0.00 47 1024.7
20190218162203 56 49 4.0 9.0 0.00 0.00 0.00 48 1024.6
20190218161704 55 72 3.0 9.0 0.00 0.00 0.00 51 1024.6
20190218161203 55 159 3.0 10.0 0.00 0.00 0.00 52 1024.6
20190218160705 54 354 3.0 14.0 0.00 0.00 0.00 53 1024.6
20190218160203 53 354 5.0 14.0 0.00 0.00 0.00 53 1024.6
20190218155703 53 68 3.0 11.0 0.00 0.00 0.00 56 1024.7
20190218155202 52 338 3.0 10.0 0.00 0.00 0.00 57 1024.7
20190218154702 52 319 4.0 10.0 0.00 0.00 0.00 56 1024.6
20190218154203 52 68 1.0 7.0 0.00 0.00 0.00 61 1024.7
20190218153702 51 338 3.0 9.0 0.00 0.00 0.00 60 1024.6
20190218153202 51 0 3.0 9.0 0.00 0.00 0.00 60 1024.8
20190218152702 50 338 3.0 6.0 0.00 0.00 0.00 62 1024.7
20190218152202 50 25 3.0 7.0 0.00 0.00 0.00 63 1024.6
20190218151702 50 23 3.0 5.0 0.00 0.00 0.00 62 1024.7
20190218151204 50 86 2.0 10.0 0.00 0.00 0.00 63 1024.5
20190218150702 49 0 4.0 7.0 0.00 0.00 0.00 64 1024.4
20190218150201 48 340 2.0 7.0 0.00 0.00 0.00 65 1024.2
20190218145703 49 32 2.0 7.0 0.00 0.00 0.00 66 1024.2
20190218145203 49 0 3.0 6.0 0.00 0.00 0.00 66 1024.2
20190218144702 48 353 2.0 6.0 0.00 0.00 0.00 67 1024.1
20190218144202 48 47 3.0 5.0 0.00 0.00 0.00 67 1024.1
20190218143700 48 268 2.0 7.0 0.00 0.00 0.00 68 1024.1
20190218143201 47 313 2.0 9.0 0.00 0.00 0.00 68 1023.9
20190218142701 47 0 3.0 9.0 0.00 0.00 0.00 68 1024.0
20190218142202 47 31 1.0 5.0 0.00 0.00 0.00 68 1024.0
20190218141701 47 52 4.0 5.0 0.00 0.00 0.00 67 1023.8
20190218141201 47 343 2.0 6.0 0.00 0.00 0.00 67 1023.7
20190218140704 47 11 2.0 6.0 0.00 0.00 0.00 67 1023.6
20190218140200 47 13 2.0 6.0 0.00 0.00 0.00 68 1023.6
20190218135700 47 343 2.0 5.0 0.00 0.00 0.00 68 1023.3
20190218135200 46 45 2.0 5.0 0.00 0.00 0.00 68 1023.1
20190218134700 46 329 2.0 5.0 0.00 0.00 0.00 68 1023.1
20190218134200 46 6 2.0 4.0 0.00 0.00 0.00 68 1023.1
20190218133659 46 347 2.0 9.0 0.00 0.00 0.00 68 1023.2
20190218133201 46 343 2.0 9.0 0.00 0.00 0.00 68 1023.0
20190218132659 46 31 3.0 7.0 0.00 0.00 0.00 68 1022.9
20190218132201 46 0 3.0 6.0 0.00 0.00 0.00 68 1022.9
20190218131659 46 351 2.0 6.0 0.00 0.00 0.00 68 1022.8
20190218131159 46 32 2.0 9.0 0.00 0.00 0.00 68 1022.7
20190218130658 46 31 3.0 9.0 0.00 0.00 0.00 69 1022.7
20190218130201 46 0 3.0 7.0 0.00 0.00 0.00 69 1022.6
20190218125659 46 39 1.0 7.0 0.00 0.00 0.00 69 1022.4
20190218125158 46 0 2.0 5.0 0.00 0.00 0.00 70 1022.3
20190218124659 46 13 2.0 5.0 0.00 0.00 0.00 70 1022.4
20190218124158 46 38 2.0 10.0 0.00 0.00 0.00 70 1022.3
20190218123657 46 39 2.0 10.0 0.00 0.01 0.00 70 1022.0
20190218123158 46 20 2.0 7.0 0.00 0.01 0.00 70 1021.9
20190218122658 46 341 2.0 7.0 0.00 0.01 0.00 69 1022.0
20190218122159 46 21 3.0 6.0 0.00 0.02 0.00 70 1021.9
20190218121658 46 0 2.0 6.0 0.00 0.02 0.00 70 1021.9
20190218121200 46 3 3.0 6.0 0.00 0.02 0.00 70 1021.9
20190218120659 46 4 1.0 7.0 0.00 0.02 0.00 70 1021.8
20190218120158 46 344 3.0 7.0 0.00 0.03 0.00 70 1021.7
20190218115658 46 14 2.0 7.0 0.00 0.03 0.00 70 1021.6
20190218115158 46 353 2.0 5.0 0.00 0.03 0.00 70 1021.6
20190218114657 46 330 2.0 5.0 0.00 0.03 0.00 70 1021.5
20190218114158 46 0 2.0 6.0 0.00 0.03 0.00 71 1021.5
20190218113658 46 337 3.0 6.0 0.00 0.03 0.00 70 1021.5
20190218113158 46 334 2.0 5.0 0.00 0.03 0.00 71 1021.4
20190218112657 46 23 2.0 5.0 0.00 0.03 0.00 71 1021.3
20190218112157 46 343 2.0 5.0 0.00 0.03 0.00 71 1021.3
20190218111658 46 357 2.0 5.0 0.00 0.03 0.00 71 1021.2
20190218111156 46 0 2.0 5.0 0.00 0.03 0.00 71 1021.2
20190218110657 46 13 1.0 5.0 0.00 0.03 0.00 72 1021.1
20190218110156 46 13 2.0 5.0 0.00 0.03 0.00 72 1021.1
20190218105656 46 41 2.0 6.0 0.00 0.03 0.00 72 1021.1
20190218105155 46 353 2.0 5.0 0.00 0.03 0.00 72 1021.0
20190218104656 46 336 2.0 7.0 0.00 0.03 0.00 72 1020.9
20190218104156 46 345 3.0 7.0 0.00 0.03 0.00 72 1020.9
20190218103655 46 340 3.0 6.0 0.00 0.03 0.00 73 1020.9
20190218103156 46 6 2.0 7.0 0.00 0.03 0.00 73 1020.9
20190218102656 45 0 4.0 5.0 0.00 0.03 0.00 73 1020.8
20190218102155 45 34 2.0 5.0 0.00 0.03 0.00 73 1020.7
20190218101656 45 0 2.0 4.0 0.00 0.03 0.00 74 1020.7
20190218101154 45 8 2.0 6.0 0.00 0.03 0.00 74 1020.8
20190218100656 45 8 2.0 6.0 0.00 0.03 0.00 74 1020.8
20190218100155 45 0 2.0 6.0 0.00 0.03 0.00 73 1020.7
20190218095657 45 348 3.0 10.0 0.00 0.03 0.00 74 1020.8
20190218095155 45 327 3.0 10.0 0.00 0.03 0.00 74 1020.6
20190218094655 45 0 3.0 6.0 0.00 0.03 0.00 74 1020.7
20190218094155 45 341 3.0 10.0 0.00 0.03 0.00 74 1020.8
20190218093653 45 333 3.0 10.0 0.00 0.03 0.00 74 1020.7
20190218093155 45 0 3.0 9.0 0.00 0.03 0.00 74 1020.7
20190218092655 45 10 3.0 9.0 0.00 0.03 0.00 74 1020.6
20190218092154 45 350 3.0 10.0 0.00 0.03 0.00 74 1020.6
20190218091653 45 348 4.0 6.0 0.00 0.03 0.00 74 1020.6
20190218091154 45 336 4.0 6.0 0.00 0.03 0.00 74 1020.5
20190218090653 45 353 4.0 9.0 0.00 0.03 0.00 74 1020.6
20190218090153 45 333 4.0 9.0 0.00 0.03 0.00 74 1020.8
20190218085653 45 355 4.0 11.0 0.00 0.03 0.00 74 1020.8
20190218085154 46 355 4.0 11.0 0.00 0.03 0.00 74 1020.8
20190218084654 46 331 3.0 7.0 0.00 0.03 0.00 75 1020.9
20190218084154 46 4 4.0 10.0 0.00 0.03 0.00 75 1020.9
20190218083654 46 344 4.0 12.0 0.00 0.03 0.00 75 1020.9
20190218083153 46 336 5.0 12.0 0.00 0.03 0.00 75 1020.9
20190218082652 46 0 3.0 9.0 0.00 0.03 0.00 75 1020.9
20190218082154 46 345 4.0 9.0 0.00 0.03 0.00 75 1021.0
20190218081652 46 329 3.0 9.0 0.00 0.03 0.00 75 1021.0
20190218081152 46 344 4.0 7.0 0.00 0.03 0.00 75 1020.9
20190218080653 46 8 3.0 7.0 0.00 0.03 0.00 75 1021.0
20190218080151 46 0 4.0 9.0 0.00 0.03 0.00 75 1020.8
20190218075651 46 0 3.0 9.0 0.00 0.03 0.00 75 1020.8
20190218075152 47 317 4.0 9.0 0.00 0.03 0.00 75 1020.8
20190218074651 47 336 5.0 6.0 0.00 0.03 0.00 74 1020.8
20190218074152 47 17 4.0 6.0 0.00 0.03 0.00 74 1020.8
20190218073651 47 0 4.0 9.0 0.00 0.03 0.00 74 1020.8
20190218073151 47 354 4.0 9.0 0.00 0.03 0.00 74 1020.9
20190218072652 47 358 5.0 7.0 0.00 0.03 0.00 74 1020.8
20190218072153 47 8 3.0 9.0 0.00 0.03 0.00 74 1020.9
20190218071652 47 0 3.0 9.0 0.00 0.03 0.00 75 1020.7
20190218071150 47 351 4.0 9.0 0.00 0.03 0.00 74 1020.8
20190218070652 47 0 3.0 9.0 0.00 0.03 0.00 74 1020.7
20190218070151 47 334 4.0 7.0 0.00 0.03 0.00 74 1020.6
20190218065651 48 0 3.0 6.0 0.00 0.03 0.00 74 1020.6
20190218065150 48 42 2.0 6.0 0.00 0.03 0.00 74 1020.4
20190218064651 48 4 3.0 5.0 0.00 0.03 0.00 74 1020.4
20190218064151 48 350 2.0 5.0 0.00 0.03 0.00 74 1020.5
20190218063650 48 330 2.0 7.0 0.00 0.03 0.00 74 1020.3
20190218063152 48 3 2.0 7.0 0.00 0.03 0.00 73 1020.3
20190218062653 48 348 1.0 5.0 0.00 0.03 0.00 74 1020.2
20190218062149 48 350 2.0 6.0 0.00 0.03 0.00 73 1020.1
20190218061650 48 24 2.0 7.0 0.00 0.03 0.00 73 1019.9
20190218061150 49 333 2.0 7.0 0.00 0.03 0.00 73 1019.9
20190218060650 49 353 3.0 7.0 0.00 0.03 0.00 74 1019.8
20190218060149 48 8 3.0 7.0 0.00 0.03 0.00 74 1019.5
20190218055651 49 358 2.0 7.0 0.00 0.03 0.03 74 1019.4
20190218055152 49 0 3.0 9.0 0.00 0.03 0.03 74 1019.3
20190218054651 49 330 4.0 9.0 0.00 0.03 0.03 75 1019.2
20190218054149 49 351 4.0 6.0 0.00 0.03 0.03 75 1018.9
20190218053649 49 0 3.0 6.0 0.00 0.03 0.03 76 1018.9
20190218053149 49 25 3.0 5.0 0.00 0.03 0.03 76 1018.8
20190218052649 49 0 2.0 4.0 0.00 0.03 0.03 76 1018.6
20190218052149 49 32 2.0 4.0 0.00 0.03 0.03 76 1018.5
20190218051650 49 7 2.0 6.0 0.00 0.03 0.03 76 1018.3
20190218051148 49 3 2.0 6.0 0.00 0.03 0.03 76 1018.0
20190218050647 49 11 3.0 6.0 0.00 0.03 0.03 76 1018.1
20190218050148 49 0 2.0 6.0 0.00 0.03 0.03 76 1018.0
20190218045647 49 0 2.0 5.0 0.00 0.03 0.03 76 1018.1
20190218045148 49 286 2.0 6.0 0.00 0.03 0.03 75 1017.9
20190218044648 49 345 2.0 6.0 0.00 0.03 0.03 75 1018.0
20190218044147 49 0 3.0 6.0 0.00 0.03 0.03 75 1018.0
20190218043647 50 0 3.0 6.0 0.00 0.03 0.03 75 1017.8
20190218043148 50 13 2.0 7.0 0.00 0.03 0.03 74 1017.7
20190218042648 50 11 3.0 7.0 0.00 0.03 0.03 74 1017.6
20190218042147 50 353 3.0 11.0 0.00 0.03 0.03 74 1017.4
20190218041647 50 41 4.0 11.0 0.00 0.03 0.03 75 1017.4
20190218041146 50 62 3.0 7.0 0.00 0.03 0.03 74 1017.2
20190218040646 50 344 3.0 6.0 0.00 0.03 0.03 74 1017.2
20190218040149 50 0 2.0 9.0 0.00 0.03 0.03 74 1017.3
20190218035646 50 27 3.0 9.0 0.00 0.03 0.03 73 1017.2
20190218035147 50 338 3.0 9.0 0.00 0.03 0.03 73 1017.3
20190218034646 50 0 3.0 6.0 0.00 0.03 0.03 74 1017.5
20190218034146 51 333 2.0 6.0 0.00 0.03 0.03 74 1017.5
20190218033647 51 0 2.0 6.0 0.00 0.03 0.03 73 1017.3
20190218033148 51 355 2.0 10.0 0.00 0.03 0.03 73 1017.3
20190218032646 51 354 4.0 10.0 0.00 0.03 0.03 74 1017.2
20190218032147 51 353 3.0 10.0 0.00 0.03 0.03 75 1017.2
20190218031646 51 13 3.0 10.0 0.00 0.03 0.03 76 1017.2
20190218031145 51 306 3.0 6.0 0.00 0.03 0.03 77 1017.2
20190218030646 51 350 3.0 6.0 0.00 0.03 0.03 77 1017.3
20190218030146 51 344 4.0 5.0 0.00 0.03 0.03 77 1017.2
20190218025649 51 27 3.0 6.0 0.00 0.03 0.03 77 1017.2
20190218025146 51 353 3.0 7.0 0.00 0.03 0.03 77 1017.2
20190218024645 51 350 2.0 5.0 0.00 0.03 0.03 77 1017.3
20190218024145 51 6 2.0 6.0 0.00 0.03 0.03 76 1017.2
20190218023644 51 16 2.0 7.0 0.00 0.03 0.03 76 1017.3
20190218023145 52 0 3.0 7.0 0.00 0.03 0.03 76 1017.3
20190218022644 51 0 2.0 4.0 0.00 0.03 0.03 76 1017.0
20190218022144 52 0 2.0 6.0 0.00 0.03 0.03 76 1017.0
20190218021645 52 333 3.0 7.0 0.00 0.03 0.03 76 1017.1
20190218021145 52 344 3.0 9.0 0.00 0.03 0.03 76 1017.0
20190218020645 52 341 3.0 9.0 0.00 0.03 0.03 75 1017.1
20190218020146 52 11 3.0 7.0 0.00 0.03 0.03 76 1017.0
20190218015645 52 348 3.0 6.0 0.00 0.03 0.03 76 1016.9
20190218015144 52 0 2.0 6.0 0.00 0.03 0.03 76 1016.8
20190218014644 52 340 4.0 6.0 0.00 0.03 0.03 76 1016.6
20190218014143 52 0 2.0 4.0 0.00 0.03 0.03 76 1016.7
20190218013644 52 343 2.0 2.0 0.00 0.03 0.03 76 1016.5
20190218013144 52 341 1.0 3.0 0.00 0.03 0.03 76 1016.1
20190218012644 52 345 1.0 3.0 0.00 0.03 0.03 75 1016.0
20190218012143 53 6 2.0 4.0 0.00 0.03 0.03 75 1015.9
20190218011643 53 6 2.0 4.0 0.00 0.03 0.03 74 1015.9
20190218011144 53 1 2.0 7.0 0.00 0.03 0.03 73 1015.8
20190218010642 53 345 3.0 7.0 0.00 0.03 0.03 73 1015.6
20190218010144 53 0 2.0 5.0 0.00 0.03 0.03 72 1015.5
20190218005644 54 354 2.0 5.0 0.00 0.03 0.03 72 1015.4
20190218005144 54 347 3.0 7.0 0.00 0.03 0.03 71 1015.4
20190218004643 54 6 4.0 10.0 0.00 0.03 0.03 70 1015.4
20190218004143 54 47 3.0 10.0 0.00 0.03 0.03 69 1015.2
20190218003642 55 0 4.0 9.0 0.00 0.03 0.03 69 1015.1
20190218003142 55 351 4.0 9.0 0.00 0.03 0.03 68 1015.0
20190218002642 55 358 4.0 10.0 0.00 0.03 0.03 68 1014.9
20190218002143 55 338 6.0 12.0 0.00 0.03 0.03 68 1014.8
20190218001641 56 0 4.0 12.0 0.00 0.03 0.03 68 1014.7
20190218001143 56 321 4.0 7.0 0.00 0.03 0.03 70 1014.5
20190218000642 56 343 3.0 11.0 0.00 0.03 0.03 72 1014.3
20190218000142 56 10 4.0 11.0 0.00 0.03 0.03 71 1014.1
20190217235642 56 336 6.0 9.0 0.00 0.03 0.03 71 1014.0
20190217235141 57 348 4.0 10.0 0.00 0.03 0.03 70 1013.9
20190217234642 57 0 4.0 10.0 0.00 0.03 0.03 70 1013.7
20190217234141 57 333 4.0 11.0 0.00 0.03 0.03 69 1013.6
20190217233641 57 0 5.0 11.0 0.00 0.03 0.03 69 1013.6
20190217233141 58 345 5.0 10.0 0.00 0.03 0.03 69 1013.5
20190217232640 58 27 4.0 11.0 0.00 0.03 0.03 69 1013.5
20190217232141 58 327 5.0 13.0 0.00 0.03 0.03 70 1013.4
20190217231640 58 326 5.0 12.0 0.00 0.03 0.03 70 1013.5
20190217231141 58 343 7.0 13.0 0.00 0.03 0.03 69 1013.5
20190217230640 58 334 7.0 13.0 0.00 0.03 0.03 70 1013.4
20190217230142 58 0 8.0 12.0 0.00 0.03 0.03 70 1013.4
20190217225640 58 7 6.0 12.0 0.00 0.03 0.03 70 1013.3
20190217225139 58 319 6.0 12.0 0.00 0.03 0.03 70 1013.3
20190217224639 58 334 6.0 12.0 0.00 0.03 0.03 70 1013.4
20190217224140 58 345 6.0 10.0 0.00 0.03 0.03 69 1013.4
20190217223640 58 14 5.0 12.0 0.00 0.03 0.03 68 1013.3
20190217223140 59 351 6.0 14.0 0.00 0.03 0.03 67 1013.2
20190217222641 60 334 6.0 18.0 0.00 0.03 0.03 67 1013.1
20190217222139 59 4 8.0 18.0 0.00 0.03 0.03 67 1013.2
20190217221640 59 313 7.0 13.0 0.00 0.03 0.03 67 1013.0
20190217221139 60 358 6.0 13.0 0.00 0.03 0.03 68 1013.0
20190217220638 60 340 6.0 10.0 0.00 0.03 0.03 67 1013.0
20190217220140 60 7 6.0 12.0 0.00 0.03 0.03 68 1013.0
20190217215641 60 324 6.0 12.0 0.00 0.03 0.03 69 1012.8
20190217215138 60 0 6.0 13.0 0.00 0.03 0.03 70 1012.8
20190217214638 60 336 6.0 13.0 0.00 0.03 0.03 70 1012.8
20190217214141 60 343 5.0 12.0 0.00 0.03 0.03 70 1012.7
20190217213639 59 354 6.0 12.0 0.00 0.03 0.03 71 1012.6
20190217213137 59 341 6.0 14.0 0.00 0.03 0.03 71 1012.6
20190217212639 59 329 8.0 14.0 0.00 0.03 0.03 70 1012.6
20190217212137 59 357 7.0 16.0 0.00 0.03 0.03 71 1012.5
20190217211638 59 333 8.0 16.0 0.00 0.03 0.03 71 1012.4
20190217211140 59 348 6.0 12.0 0.00 0.03 0.03 73 1012.4
20190217210639 59 351 7.0 11.0 0.00 0.03 0.03 72 1012.5
20190217210137 60 340 6.0 14.0 0.00 0.03 0.03 72 1012.5
20190217205639 59 0 7.0 14.0 0.00 0.03 0.03 73 1012.5
20190217205136 59 18 5.0 14.0 0.00 0.03 0.03 74 1012.5
20190217204638 58 350 5.0 13.0 0.00 0.03 0.03 75 1012.5
20190217204138 58 3 7.0 14.0 0.00 0.03 0.03 75 1012.4
20190217203638 58 327 7.0 15.0 0.00 0.03 0.03 76 1012.5
20190217203138 58 354 9.0 15.0 0.00 0.03 0.03 77 1012.6
20190217202637 57 21 6.0 15.0 0.00 0.03 0.03 78 1012.7
20190217202137 57 343 6.0 19.0 0.00 0.03 0.03 80 1012.7
20190217201637 57 0 8.0 19.0 0.00 0.03 0.03 79 1012.7
20190217201136 57 0 6.0 15.0 0.00 0.03 0.03 79 1012.8
20190217200636 57 13 8.0 15.0 0.00 0.03 0.03 79 1012.8
20190217200136 57 344 8.0 15.0 0.00 0.03 0.03 80 1012.7
20190217195637 56 344 6.0 17.0 0.00 0.03 0.03 80 1012.7
20190217195136 56 313 6.0 17.0 0.00 0.03 0.03 81 1012.9
20190217194637 56 324 8.0 16.0 0.00 0.03 0.03 82 1012.9
20190217194135 56 28 8.0 15.0 0.00 0.03 0.03 82 1012.9
20190217193636 56 0 7.0 15.0 0.00 0.03 0.03 84 1012.8
20190217193136 56 0 7.0 15.0 0.00 0.03 0.03 84 1012.9
20190217192635 56 345 8.0 14.0 0.00 0.03 0.03 84 1013.0
20190217192136 56 326 7.0 13.0 0.00 0.03 0.03 85 1013.0
20190217191635 56 61 7.0 13.0 0.00 0.03 0.03 85 1013.1